• In Uzbekistan
  • List of Countries
  • For 7 days
  • Water Temperature
  • Weather Map
  • Weather Widgets
  • user-avatar
    Login

    Hourly Weather Lubango

    Today, 22 September, Sunday

    Time Temperature Precipitation Wind Pressure Humidity
    00:00 +16°C° 0 mm 1 mps 608 mmHg 50%
    01:00 +16°C° 0 mm 1 mps 608 mmHg 46%
    02:00 +16°C° 0 mm 1 mps 607 mmHg 44%
    03:00 +16°C° 0 mm 1 mps 607 mmHg 41%
    04:00 +15°C° 0 mm 1 mps 607 mmHg 39%
    05:00 +18°C° 0 mm 1 mps 608 mmHg 36%
    06:00 +19°C° 0 mm 1 mps 609 mmHg 34%
    07:00 +19°C° 0 mm 2 mps 610 mmHg 31%
    08:00 +23°C° 0 mm 2 mps 611 mmHg 26%
    09:00 +26°C° 0 mm 2 mps 612 mmHg 21%
    10:00 +29°C° 0 mm 2 mps 613 mmHg 16%
    11:00 +30°C° 0 mm 2 mps 612 mmHg 16%
    12:00 +31°C° 0 mm 2 mps 612 mmHg 15%
    13:00 +32°C° 0 mm 2 mps 612 mmHg 14%
    14:00 +31°C° 0 mm 3 mps 611 mmHg 16%
    15:00 +30°C° 0 mm 3 mps 610 mmHg 19%
    16:00 +29°C° 0 mm 4 mps 610 mmHg 21%
    17:00 +26°C° 0 mm 3 mps 609 mmHg 32%
    18:00 +21°C° 0 mm 2 mps 608 mmHg 43%
    19:00 +18°C° 0 mm 1 mps 607 mmHg 54%
    20:00 +18°C° 0 mm 1 mps 607 mmHg 55%
    21:00 +16°C° 0 mm 1 mps 607 mmHg 56%
    22:00 +15°C° 0 mm 1 mps 608 mmHg 57%
    23:00 +15°C° 0 mm 1 mps 608 mmHg 52%

    Tomorrow, 23 September, Monday

    Time Temperature Precipitation Wind Pressure Humidity
    00:00 +15°C° 0 mm 1 mps 608 mmHg 48%
    01:00 +15°C° 0 mm 1 mps 607 mmHg 43%
    02:00 +15°C° 0 mm 1 mps 607 mmHg 42%
    03:00 +15°C° 0 mm 2 mps 607 mmHg 40%
    04:00 +15°C° 0 mm 2 mps 607 mmHg 38%
    05:00 +16°C° 0 mm 2 mps 608 mmHg 36%
    06:00 +17°C° 0 mm 2 mps 609 mmHg 34%
    07:00 +18°C° 0 mm 3 mps 610 mmHg 32%
    08:00 +22°C° 0 mm 3 mps 611 mmHg 26%
    09:00 +26°C° 0 mm 4 mps 611 mmHg 20%
    10:00 +29°C° 0 mm 4 mps 612 mmHg 14%
    11:00 +32°C° 0 mm 4 mps 612 mmHg 12%
    12:00 +33°C° 0 mm 4 mps 612 mmHg 11%
    13:00 +34°C° 0 mm 3 mps 612 mmHg 10%
    14:00 +33°C° 0 mm 3 mps 611 mmHg 12%
    15:00 +31°C° 0 mm 3 mps 610 mmHg 15%
    16:00 +30°C° 0 mm 3 mps 610 mmHg 17%
    17:00 +26°C° 0 mm 3 mps 609 mmHg 31%
    18:00 +21°C° 0 mm 2 mps 608 mmHg 46%
    19:00 +18°C° 0 mm 1 mps 607 mmHg 60%
    20:00 +16°C° 0 mm 1 mps 607 mmHg 62%
    21:00 +15°C° 0 mm 1 mps 608 mmHg 64%
    22:00 +15°C° 0 mm 1 mps 608 mmHg 65%
    23:00 +15°C° 0 mm 1 mps 608 mmHg 64%

    Day after tomorrow, 24 September, Tuesday

    Time Temperature Precipitation Wind Pressure Humidity
    00:00 +15°C° 0 mm 1 mps 608 mmHg 62%
    01:00 +15°C° 0 mm 1 mps 608 mmHg 61%
    02:00 +15°C° 0 mm 1 mps 608 mmHg 56%
    03:00 +15°C° 0 mm 1 mps 607 mmHg 51%
    04:00 +15°C° 0 mm 1 mps 607 mmHg 47%
    05:00 +16°C° 0 mm 1 mps 608 mmHg 43%
    06:00 +18°C° 0 mm 1 mps 609 mmHg 39%
    07:00 +19°C° 0 mm 1 mps 609 mmHg 35%
    08:00 +23°C° 0 mm 2 mps 610 mmHg 29%
    09:00 +26°C° 0 mm 3 mps 611 mmHg 23%
    10:00 +30°C° 0 mm 3 mps 612 mmHg 18%
    11:00 +32°C° 0 mm 4 mps 612 mmHg 16%
    12:00 +33°C° 0 mm 4 mps 612 mmHg 13%
    13:00 +34°C° 0 mm 4 mps 611 mmHg 11%
    14:00 +34°C° 0 mm 4 mps 611 mmHg 13%
    15:00 +33°C° 0 mm 4 mps 610 mmHg 14%
    16:00 +32°C° 0 mm 4 mps 610 mmHg 15%
    17:00 +27°C° 0 mm 3 mps 609 mmHg 30%
    18:00 +21°C° 0 mm 2 mps 608 mmHg 44%
    19:00 +18°C° 0 mm 1 mps 607 mmHg 59%
    20:00 +16°C° 0 mm 1 mps 608 mmHg 61%
    21:00 +15°C° 0 mm 1 mps 608 mmHg 63%
    22:00 +15°C° 0 mm 1 mps 608 mmHg 65%
    23:00 +14°C° 0 mm 1 mps 608 mmHg 63%

    25 September, Wednesday

    Time Temperature Precipitation Wind Pressure Humidity
    00:00 +14°C° 0 mm 1 mps 608 mmHg 61%
    01:00 +14°C° 0 mm 1 mps 608 mmHg 59%
    02:00 +14°C° 0 mm 1 mps 607 mmHg 57%
    03:00 +14°C° 0 mm 1 mps 607 mmHg 54%
    04:00 +14°C° 0 mm 1 mps 607 mmHg 52%
    05:00 +16°C° 0 mm 1 mps 608 mmHg 46%
    06:00 +18°C° 0 mm 1 mps 609 mmHg 41%
    07:00 +20°C° 0 mm 1 mps 610 mmHg 35%
    08:00 +23°C° 0 mm 2 mps 611 mmHg 29%
    09:00 +26°C° 0 mm 2 mps 612 mmHg 23%
    10:00 +29°C° 0 mm 3 mps 613 mmHg 17%
    11:00 +30°C° 0 mm 4 mps 613 mmHg 16%
    12:00 +32°C° 0 mm 4 mps 613 mmHg 15%
    13:00 +33°C° 0 mm 4 mps 612 mmHg 14%
    14:00 +33°C° 0 mm 4 mps 612 mmHg 16%
    15:00 +32°C° 0 mm 4 mps 611 mmHg 17%
    16:00 +32°C° 0 mm 4 mps 610 mmHg 19%
    17:00 +26°C° 0 mm 3 mps 609 mmHg 35%
    18:00 +21°C° 0 mm 2 mps 608 mmHg 52%
    19:00 +16°C° 0 mm 1 mps 607 mmHg 68%
    20:00 +16°C° 0 mm 1 mps 607 mmHg 68%
    21:00 +15°C° 0 mm 1 mps 608 mmHg 68%
    22:00 +15°C° 0 mm 1 mps 608 mmHg 67%
    23:00 +15°C° 0 mm 1 mps 608 mmHg 66%

    26 September, Thursday

    Time Temperature Precipitation Wind Pressure Humidity
    00:00 +14°C° 0 mm 1 mps 608 mmHg 65%
    01:00 +14°C° 0 mm 1 mps 608 mmHg 64%
    02:00 +14°C° 0 mm 1 mps 608 mmHg 61%
    03:00 +14°C° 0 mm 1 mps 607 mmHg 58%
    04:00 +14°C° 0 mm 1 mps 607 mmHg 56%
    05:00 +16°C° 0 mm 2 mps 608 mmHg 51%
    06:00 +17°C° 0 mm 2 mps 609 mmHg 47%
    07:00 +18°C° 0 mm 2 mps 610 mmHg 42%
    08:00 +21°C° 0 mm 3 mps 611 mmHg 35%
    09:00 +26°C° 0 mm 5 mps 612 mmHg 27%
    10:00 +29°C° 0 mm 6 mps 613 mmHg 20%
    11:00 +30°C° 0 mm 5 mps 613 mmHg 19%
    12:00 +32°C° 0 mm 5 mps 612 mmHg 17%
    13:00 +33°C° 0 mm 4 mps 612 mmHg 16%
    14:00 +33°C° 0 mm 4 mps 611 mmHg 17%
    15:00 +32°C° 0 mm 4 mps 611 mmHg 18%
    16:00 +32°C° 0 mm 4 mps 611 mmHg 18%
    17:00 +27°C° 0 mm 3 mps 610 mmHg 34%
    18:00 +21°C° 0 mm 2 mps 609 mmHg 50%
    19:00 +18°C° 0 mm 1 mps 608 mmHg 65%
    20:00 +18°C° 0 mm 1 mps 608 mmHg 67%
    21:00 +16°C° 0 mm 1 mps 609 mmHg 68%
    22:00 +14°C° 0 mm 0 mps 609 mmHg 70%
    23:00 +15°C° 0 mm 1 mps 609 mmHg 68%

    27 September, Friday

    Time Temperature Precipitation Wind Pressure Humidity
    00:00 +15°C° 0 mm 1 mps 609 mmHg 66%
    01:00 +15°C° 0 mm 1 mps 608 mmHg 64%
    02:00 +15°C° 0 mm 2 mps 608 mmHg 61%
    03:00 +15°C° 0 mm 2 mps 608 mmHg 57%
    04:00 +14°C° 0 mm 3 mps 609 mmHg 53%
    05:00 +16°C° 0 mm 3 mps 609 mmHg 47%
    06:00 +17°C° 0 mm 3 mps 610 mmHg 42%
    07:00 +18°C° 0 mm 3 mps 611 mmHg 36%
    08:00 +21°C° 0 mm 3 mps 612 mmHg 30%
    09:00 +25°C° 0 mm 4 mps 613 mmHg 23%
    10:00 +28°C° 0 mm 4 mps 614 mmHg 17%
    11:00 +30°C° 0 mm 4 mps 613 mmHg 15%
    12:00 +32°C° 0 mm 4 mps 613 mmHg 12%
    13:00 +33°C° 0 mm 4 mps 613 mmHg 10%
    14:00 +33°C° 0 mm 4 mps 612 mmHg 11%
    15:00 +32°C° 0 mm 5 mps 611 mmHg 12%
    16:00 +30°C° 0 mm 5 mps 611 mmHg 13%
    17:00 +26°C° 0 mm 4 mps 609 mmHg 32%
    18:00 +20°C° 0 mm 3 mps 608 mmHg 52%
    19:00 +15°C° 0 mm 2 mps 607 mmHg 72%
    20:00 +15°C° 0 mm 2 mps 607 mmHg 74%
    21:00 +14°C° 0 mm 1 mps 607 mmHg 77%
    22:00 +13°C° 0 mm 1 mps 608 mmHg 80%
    23:00 +13°C° 0 mm 1 mps 608 mmHg 74%
    Show more